カタログに戻る

SL-16 DEB

運用中LEO
NORAD 18476·DEBRIS·🇷🇺 Russia

打ち上げ May 13, 1987 から Baikonur Cosmodrome

Loading…

次のパス (今後24時間)

TLE

最新Source: Space-Track

元期: Sep 14, 2026, 06:04 UTC

1 18476U 87041F   26257.25309791 -.00000014  00000-0  27392-4 0  9997
2 18476  70.9895 351.1987 0209623 287.4282 100.4353 13.73220132970113

AllMySatでSL-16 DEBをリアルタイム追跡

Download on the App Store